Location: St. Louis
(38.6270°N, 90.1994°W)
Time: 01:33:24
(UTC-06:00)

Transit 4A - Pass Details

Date: 02 December 2021
Orbit: 863 x 981 km, 66.8° (Epoch: 24 January)

Event Time Altitude Azimuth Distance (km) Brightness Sun altitude
Rises 03:48:13 0° 338° (NNW) 3,611 - -37.0°
Reaches altitude 10° 03:50:59 10° 347° (NNW) 2,681 - -36.5°
Exits shadow 03:55:45 34° 34° (NE) 1,541 9.2 -35.5°
Maximum altitude 03:56:41 36° 53° (NE) 1,498 9.2 -35.3°
Drops below altitude 10° 04:02:28 10° 118° (ESE) 2,719 11.0 -34.2°
Sets 04:05:16 0° 127° (SE) 3,669 11.7 -33.7°
